Orbital Elements at Epoch 2459200.5 (2020-Dec-17.0) TDB
Reference: JPL 35 (heliocentric ecliptic J2000)
Element | Value | Uncertainty (1-sigma) | Units |
e | .1385245908280695 | 3.2795e-08 | |
a | 2.442030442383381 | 6.9556e-09 | au |
q | 2.103749174562533 | 8.0267e-08 | au |
i | 3.905344093278903 | 2.7757e-06 | deg |
node | 72.41021084920814 | 5.3859e-05 | deg |
peri | 128.9177443180334 | 5.5009e-05 | deg |
M | 56.05542618345355 | 1.0793e-05 | deg |
tp | 2458983.459792848898 (2020-May-13.95979285) | 4.1888e-05 | TDB |
period | 1393.87887835666 3.82 | 5.9552e-06 1.63e-08 | d yr |
n | .2582720820222406 | 1.1034e-09 | deg/d |
Q | 2.780311710204228 | 7.9191e-09 | au |
|
| | Orbit Determination Parameters
Additional Information
|